FW1458 Weather Reports


time (UTC)temp
C
wind
direction
speed
KPH
gust
KPH
rain 1hr
cm
rain 24hr
cm
rain mn
cm
humidity
%
barometer
mb
20260506073011 10 109 3.2 12.9 0.00 0.00 0.00 73 1013.5
20260506071514 10 76 6.4 22.5 0.00 0.00 0.00 73 1013.1
20260506061505 10 27 4.8 14.5 0.00 0.00 0.00 72 1013.4
20260506044600 10 41 9.7 20.9 0.00 0.00 0.00 73 1013.0
20260506043053 10 5 11.3 22.5 0.00 0.00 0.00 72 1013.2
20260506041604 10 9 9.7 24.1 0.00 0.00 0.00 71 1013.4
20260506040051 10 30 6.4 24.1 0.00 0.00 0.00 72 1013.4
20260506034549 10 44 6.4 19.3 0.00 0.03 0.00 73 1013.4
20260506033048 10 351 11.3 20.9 0.00 0.03 0.00 74 1013.0
20260506031547 10 355 6.4 17.7 0.00 0.03 0.00 76 1012.9
20260506030044 10 342 8.0 17.7 0.00 0.03 0.00 77 1012.7
20260506024543 10 336 8.0 22.5 0.00 0.03 0.00 76 1012.1
20260506023042 10 340 8.0 20.9 0.00 0.03 0.00 76 1011.8
20260506021537 10 15 8.0 19.3 0.00 0.03 0.00 76 1011.5
20260506020035 10 46 8.0 22.5 0.00 0.03 0.00 76 1011.0
20260506014544 10 329 4.8 17.7 0.00 0.03 0.00 76 1010.9
20260506013034 10 37 14.5 30.6 0.00 0.03 0.00 75 1010.4
20260506011533 10 11 9.7 25.7 0.00 0.03 0.00 76 1010.2
20260506010029 10 355 12.9 29.0 0.00 0.03 0.00 76 1010.1
20260506004536 10 349 9.7 24.1 0.00 0.03 0.00 76 1010.0
20260506003024 11 37 9.7 25.7 0.00 0.03 0.00 76 1010.1
20260506001521 11 355 9.7 24.1 0.00 0.03 0.00 75 1009.6
20260506000023 11 15 6.4 24.1 0.00 0.03 0.00 75 1010.0
20260505234520 11 19 9.7 22.5 0.00 0.03 0.00 74 1010.0
20260505233018 11 348 12.9 25.7 0.00 0.03 0.00 73 1009.7
20260505231514 11 5 14.5 30.6 0.00 0.03 0.00 71 1009.4
20260505230015 11 348 12.9 25.7 0.00 0.03 0.00 71 1009.3
20260505224508 11 22 16.1 27.4 0.00 0.03 0.00 71 1008.7
20260505223008 11 350 11.3 25.7 0.00 0.03 0.00 71 1008.8
20260505221506 11 33 14.5 33.8 0.00 0.03 0.00 71 1008.1
20260505220008 12 12 14.5 30.6 0.00 0.03 0.00 71 1008.6
20260505214608 12 337 9.7 25.7 0.00 0.03 0.00 71 1008.4
20260505213101 12 5 11.3 32.2 0.00 0.03 0.00 71 1008.2
20260505211613 12 19 12.9 30.6 0.00 0.03 0.00 72 1008.4
20260505210105 12 129 14.5 29.0 0.00 0.03 0.00 72 1008.0
20260505204550 12 57 11.3 37.0 0.00 0.03 0.00 72 1008.3
20260505203050 12 37 14.5 25.7 0.00 0.03 0.00 73 1008.0
20260505201553 12 12 16.1 32.2 0.00 0.03 0.00 74 1008.0
20260505200045 12 343 17.7 30.6 0.00 0.03 0.00 75 1008.0
20260505194545 12 355 14.5 33.8 0.00 0.03 0.00 76 1008.3
20260505193048 12 339 12.9 30.6 0.00 0.03 0.00 76 1007.9
20260505191549 12 22 17.7 30.6 0.00 0.03 0.00 76 1007.5
20260505190044 12 13 17.7 30.6 0.00 0.03 0.00 76 1007.3
20260505184540 12 26 11.3 29.0 0.00 0.03 0.00 77 1007.1
20260505183047 12 22 12.9 24.1 0.00 0.03 0.00 79 1007.2
20260505181535 12 340 12.9 27.4 0.00 0.03 0.00 80 1007.3
20260505180036 12 64 12.9 27.4 0.00 0.03 0.00 81 1006.6
20260505174536 12 76 9.7 25.7 0.00 0.03 0.00 82 1006.6
20260505173035 12 26 14.5 29.0 0.00 0.03 0.00 82 1006.3
20260505171529 12 38 9.7 29.0 0.00 0.03 0.00 83 1006.1
20260505170019 12 355 12.9 25.7 0.00 0.03 0.00 84 1005.7
20260505164531 13 26 12.9 33.8 0.00 0.03 0.00 84 1005.6
20260505163021 13 355 16.1 32.2 0.00 0.03 0.00 84 1005.3
20260505161513 13 360 11.3 30.6 0.00 0.03 0.00 84 1005.3
20260505153004 15 338 14.5 24.1 0.00 0.03 0.00 84 1004.5
20260505151600 15 355 19.3 32.2 0.00 0.03 0.00 83 1004.5
20260505151502 15 341 14.5 30.6 0.00 0.03 0.00 83 1004.5
20260505150114 16 61 14.5 25.7 0.00 0.03 0.00 83 1004.4
20260505124545 18 59 4.8 14.5 0.00 0.03 0.00 81 1003.4
20260505123105 18 63 6.4 14.5 0.00 0.03 0.00 82 1002.6
20260505121544 18 172 3.2 6.4 0.00 0.03 0.00 82 1002.4
20260505120050 18 61 3.2 8.0 0.00 0.03 0.00 82 1002.5
20260505114553 18 136 4.8 16.1 0.00 0.03 0.00 82 1002.1
20260505113044 18 35 6.4 16.1 0.00 0.03 0.00 82 1002.2
20260505111541 18 74 4.8 16.1 0.00 0.03 0.00 83 1002.2
20260505101544 18 15 4.8 16.1 0.00 0.03 0.00 84 1001.7
20260505100039 18 48 3.2 17.7 0.00 0.03 0.00 84 1001.6
20260505094538 17 102 4.8 17.7 0.00 0.03 0.00 85 1001.5
20260505093044 17 59 4.8 16.1 0.00 0.03 0.00 84 1001.4
20260505091543 17 127 3.2 12.9 0.00 0.03 0.00 84 1001.5
20260505090046 17 86 3.2 14.5 0.00 0.03 0.00 82 1001.6
20260505084533 18 105 4.8 14.5 0.00 0.03 0.00 81 1001.4
20260505083030 18 105 4.8 14.5 0.00 0.03 0.00 81 1001.5
20260505081536 18 62 6.4 16.1 0.00 0.03 0.00 79 1001.6